THORAD AGENA D DEB, 4677

Orbit data source: Space-Track

THORAD AGENA D DEB, 4677 is space debris in SSO originally from a launch on Wed, 08 Apr 1970 UTC launched from the Air Force Western Test Range (AFWTR). Debris objects in space refer to the collection of defunct objects orbiting the Earth. Examples of debris include non-operational satellites, rocket bodies, and fragments generated from explosions, collisions, or faulty payload assembly.

Loading next visibility...
Identifier
4677, 1970-025BA
Orbit
SSO
Country
Flag of USUS
Related business
Manufacturer
Unknown
Mission
Spacecraft
Bus & Motor
Unknown
Mass
Unknown
Launch date (UTC)
1970-04-08 (56 years ago)
Launch vehicle
Unknown
Launch site
Air Force Western Test Range (AFWTR)
Object type
Payload
Rocket body
Debris
Shape & HBR
Unknown shape, 0.1 m
Radar Cross Section
Small (<0.1 m²)

Expand to show TLE details & history
Last TLE update: 18 hours ago

TLE from 18 hours ago
0 THORAD AGENA D DEB
1 04677U 70025BA  25340.87006356  .00000356  00000-0  55346-3 0  9997
2 04677  99.9721  93.1805 0008849 270.2287 214.8432 13.58396319752440
Epoch: 2025-12-06T20:52Z
TLE epoch observation values (Epoch: 2025-12-06T20:52:53.491Z)
Latitude
53.86728°
Longitude
-102.0718°
Altitude
1,055.663 km
Speed
7.327 km/s
True Right ascension
19h 08m 10s
True Declination
53° 42' 36"
Sunlit
Object was in daylight at epoch
Visualization orbit readout
Latitude
Unknown
Longitude
Unknown
Altitude
Unknown
Speed
Unknown
Apparent Right ascension
Unknown
Apparent Declination
Unknown
Sunlit
N/A
Visualization observer readout
Local Sidereal Time
12:29:02
Azimuth
Unknown
Elevation
Unknown
Doppler factor
Unknown
Orbital elements
Apogee altitude
1,045.394 km
Perigee altitude
1,032.267 km
Semi-major axis
7,416.967 km
Eccentricity
0.00088
Inclination
99.9721°
RAAN
93.1805°
Arg. of periapsis
270.2287°
True anomaly
214.78532°
Mean anomaly
214.8432°
Eccentric anomaly
214.81425°
Mean motion
3.39785 °/min
Orbital period
105.95 mins
BSTAR
0.00055346
Loading maneuver chart data...
Computing Atmospheric mass density...

Documentation

Showing up to 5 results
|